STARLINK-32365, 61625

Orbit data source: Space-Track

STARLINK-32365, 61625 is a payload satellite owned by SpaceX/Seattle (US) in LEO that was launched on Wed, 23 Oct 2024 UTC via an FALCON 9 launch vehicle from the Air Force Eastern Test Range (AFETR). Payload-class satellites include a variety of spacecraft equipped with specific instruments for various scientific and technological missions. These include communications satellites like Starlink; space stations such as the ISS; scientific satellites like the Hubble; Earth observation satellites from companies like Planet Labs, Umbra, and HawkEye 360; GPS; miniature CubeSats for education and research; and military/defense satellites.

Loading next visibility...
Identifier
61625, 2024-191E
Orbit
LEO
Last TLE update
20 hours ago
Origin
Manufacturer
SpaceX/Seattle
Mission
Operational Commercial Communications
Bus & Motor
STARLINK V2M, Unknown motor
Mass
730 kg wet, ~700 kg dry
Launch date (UTC)
2024-10-23 (8 months ago)
Launch vehicle
FALCON 9
Launch site
Air Force Eastern Test Range (AFETR)
Object type
Payload
Rocket body
Debris
Shape & HBR
Box + 2 Pan, 29 m
Radar Cross Section
36.964 m², Large (>1 m²)

Expand to show TLE details & history

TLE from 20 hours ago
0 STARLINK-32365
1 61625U 24191E   25186.16675869  .00000030  00000-0  10590-4 0  9999
2 61625  42.9996 112.1499 0000788 260.5768  99.4995 15.27581224 39683
Epoch: 2025-07-05T04:00Z
TLE epoch observation values (Epoch: 2025-07-05T04:00:07.95Z)
Latitude
-0°
Longitude
128.70808°
Altitude
482.91 km
Speed
7.626 km/s
True Right ascension
07h 28m 35s
True Declination
0° 00' 00"
Sunlit
Object was in daylight at epoch
Visualization orbit readout
Latitude
-42.90704°
Longitude
26.42665°
Altitude
495.748 km
Speed
7.618 km/s
Apparent Right ascension
00h 17m 50s
Apparent Declination
-41° 24' 52"
Sunlit
Object is in daylight
Visualization observer readout
Local Sidereal Time
11:55:35
Azimuth
248.657° W
Elevation
-85.522°
Doppler factor
1
Orbital elements
Apogee altitude
485.531 km
Perigee altitude
484.45 km
Semi-major axis
6,863.128 km
Eccentricity
0.00008
Inclination
42.9996°
RAAN
112.1499°
Arg. of periapsis
260.5768°
True anomaly
Unknown
Mean anomaly
99.4995°
Eccentric anomaly
Unknown
Mean motion
3.81733 °/min
Orbital period
94.31 mins
BSTAR
0.00001059
Loading maneuver chart data...
Loading SW <> Apogee altitude chart data...
Loading historical data...
Loading historical data...
Loading historical data...
Loading historical data...
Loading historical data...
Loading historical data...
Loading historical data...

STARLINK-32365 Visibility forecast

Observer location: undefined°, undefined°

Span
Click to sort rows by Start time (UTC) header in descending order
Start Az.
Max El. time (UTC)
Max El. Az.
Max El.
End time (UTC)
End Az.
6 mins2025-07-06 00:43:08.760Z278.736° WNW2025-07-06 00:46:08.760Z340.049° N38.303°2025-07-06 00:49:08.760Z69.639° E
6 mins2025-07-06 02:23:08.760Z292.86° NW2025-07-06 02:25:08.760Z328.42° NNW41.198°2025-07-06 02:29:08.760Z97.191° ESE
5 mins2025-07-06 04:02:08.760Z267.239° W2025-07-06 04:04:08.760Z219.889° SW30.08°2025-07-06 04:07:08.760Z147.498° SSE
6 mins2025-07-06 22:37:08.760Z237.901° WSW2025-07-06 22:39:08.760Z203.785° SW41.48°2025-07-06 22:43:08.760Z74.438° E
|